Tracking 31027 objects as of 19-Jul-2025
HD Live streaming from Space Station
objects crossing your sky now

FENGYUN 1C DEB

Track FENGYUN 1C DEB now!
10-day predictions


NORAD ID: 31041
Int'l Code: 1999-025BEK
Perigee: 780.1 km
Apogee: 909.9 km
Inclination: 99.2 °
Period: 101.7 minutes
Semi major axis: 7215 km
RCS: 0.0058 m2 (small)
Launch date: May 10, 1999
Source: People's Republic of China (PRC)
Launch site: Taiyaun Space Center, China (TSC)

Note: This is SATELLITE DEBRIS
Your satellite tracking list
THORAD DELTA 1 DEB
Track 1 satellite(s)




NASA's NSSDC Master Catalog

Two Line Element Set (TLE):
1 31041U 99025BEK 25199.34444683  .00003198  00000-0  15720-2 0  9994
2 31041  99.2159 222.7385 0089934  19.2388 341.2145 14.16318717934026
Source of the keplerian elements: AFSPC